Find OneWeb SL0228

NORAD ID: 48780 Int'l Des: 2021-045 Owner: ONEWEBN Country: UK Constellation: oneweb operational
別名: ONEWEB-0228 spacetrack, celestrak
LEOCIRCULARPOLARONEWEB_TYPE

現在のビュー

3D地球を読み込み中...

About OneWeb SL0228

OneWeb SL0228 (NORAD 48780) is a oneweb constellation satellite launched May 28, 2021 by ONEWEBN of UK. It operates in LEO, CIRCULAR, POLAR, ONEWEB_TYPE orbit with a mass of 148.00 kg.

次回通過

Passes for default location (London). Set your location on the main map for personalized predictions.

高度履歴

Loading altitude history...

軌道要素

1 48780U 21045P 26246.43421460 .00000136 00000-0 32634-3 0 9994
2 48780 87.8971 243.5902 0002059 86.6196 273.5170 13.15549701254615
Epoch: Sep 3, 2026 • Age: 23 hours

現在のステータス

高度 1217.0 km
遠地点 / 近地点 N/A
速度 7.24 km/s
衛星直下点 -37.23°S, 59.91°W
打ち上げ日 May 28, 2021
運用期間 5.2 years
タイプ internet

技術仕様

分類 Payload
質量 148.00 kg
乾燥質量 140.00 kg
総質量 148.00 kg
長さ 1.30 m
直径 1.00 m
スパン 5.00 m
形状 Trapezoid+2 pan
製造者 ONEWUS
バスタイプ ARROW
フェーズステータス In Orbit
所有者/国 ONEWEBN/UK

Most Searched